Location: Linz
(48.3300°N, 14.3000°E)
Time: 16:47:18
(UTC+01:00)

N. Korean satellite - Pass Details

Date: 13 November 2017
Orbit: 460 x 515 km, 97.2° (Epoch: 17 November)

Event Time Altitude Azimuth Distance (km) Brightness Sun altitude
Rises 18:54:21 0° 203° (SSW) 2,478 10.5 -24.5°
Reaches altitude 10° 18:56:53 10° 224° (SW) 1,614 9.7 -25.0°
Maximum altitude 18:59:18 18° 268° (W) 1,226 9.4 -25.4°
Drops below altitude 10° 19:01:45 10° 312° (NW) 1,638 9.8 -25.8°
Sets 19:04:20 0° 333° (NNW) 2,532 10.6 -26.2°
